Dewpoint
23 25 24 24 24 23 23 24 27 28 29 31 30 30 30 31 31 31 31 31 30 30 30 29 29 29 28 30 29 27 27 28 26 19 22 26 28 25 25 21 20 22 23
20 23 23 23 25 23 21 22 25 26 27 28 29 29 29 29 30 30 30 30 29 29 29 29 27 27 27 27 28 26 24 26 27 19 21 25 26 24 23 20 15 15 18
18 18 20 20 22 21 19 20 22 25 25 26 27 28 27 28 28 29 29 29 29 29 28 28 28 26 26 27 25 25 25 22 24 21 20 22 22 23 18 17 16 16 15
19 18 19 20 20 20 21 21 21 23 25 24 24 26 27 27 27 27 27 27 27 27 27 27 27 26 26 26 26 26 25 25 22 21 18 19 18 22 19 15 15 17 14
19 21 20 21 21 22 22 22 21 21 24 23 21 23 23 25 26 26 26 27 27 26 26 26 26 26 29 28 25 27 26 26 24 22 17 15 15 18 18 16 14 15 19
19 21 22 23 22 22 22 21 20 20 21 20 19 21 20 20 24 25 26 27 28 27 26 25 25 26 28 31 31 31 28 27 26 24 19 13 12 13 17 15 14 16 15
21 21 22 22 21 21 21 20 17 16 16 16 17 17 17 18 22 23 27 25 27 28 27 27 26 24 26 24 28 31 31 32 30 24 21 17 13 12 14 14 14 16 14
21 21 21 22 21 20 19 18 17 15 14 14 14 15 15 16 21 22 24 23 24 26 27 27 27 26 25 24 23 24 25 27 27 26 23 20 18 14 14 15 18 20 23
19 19 19 18 18 17 17 17 17 16 15 14 15 14 14 15 19 20 20 19 21 23 24 26 27 26 29 30 26 25 25 25 29 31 31 30 29 26 19 21 21 20 17
16 16 16 16 15 14 15 15 15 15 15 14 14 13 13 12 16 18 17 17 18 20 22 23 27 28 30 31 28 27 25 23 26 30 30 31 32 28 26 19 21 19 17
13 12 10 9 9 9 9 9 10 10 11 10 10 10 10 11 11 17 18 16 16 18 20 20 22 28 31 32 32 27 26 25 26 28 30 30 31 29 23 20 20 19 18
7 6 4 2 3 4 2 3 3 4 5 5 6 6 7 8 12 14 16 17 18 17 18 20 22 26 28 29 30 32 32 29 28 28 28 27 25 24 23 21 21 20 19
2 -1 -1 -1 0 0 -1 -1 -1 -0 0 1 1 2 3 4 5 12 14 15 16 14 17 21 25 26 27 27 29 32 31 30 29 27 26 25 23 21 21 24 24 20 19
-2 -2 -1 -2 -2 -2 -1 -1 -2 -2 -2 -2 -2 -2 -2 -2 -1 1 4 6 11 18 23 20 23 24 25 25 27 30 31 30 29 27 26 25 24 26 24 24 20 19 17
-2 -2 -2 -3 -3 -3 -2 -2 -2 1 3 2 4 5 5 4 6 9 10 10 11 13 15 21 21 20 20 22 25 29 29 30 28 28 26 24 24 24 23 24 21 20 17
-2 -3 -4 -5 -4 -4 -4 -4 4 7 9 11 12 11 9 14 15 15 15 16 17 18 16 15 16 19 19 20 24 26 26 27 27 27 25 24 23 22 20 20 19 17 17
-4 -3 -4 -4 -5 -4 -4 -4 -4 -1 8 9 10 11 13 14 15 15 15 16 17 18 14 15 15 16 19 20 22 24 23 24 27 27 24 24 22 19 17 16 15 16 15
-2 -3 -4 -4 -4 -4 -3 -2 -1 -2 -2 -2 5 8 11 15 16 16 17 17 12 12 12 14 13 15 18 22 22 22 23 25 25 25 24 20 19 17 15 15 14 14 14
-3 -4 -3 -3 -3 -2 -1 -0 -0 0 -0 0 2 6 7 11 14 15 16 13 12 11 11 13 15 18 20 23 22 22 24 22 21 21 19 18 18 16 15 15 14 14 13
-4 -3 -1 -2 -2 -2 -2 -1 -0 1 2 3 4 5 8 9 6 6 9 12 15 16 17 17 18 24 24 22 22 22 21 20 19 19 18 17 16 16 14 12 12 11 11
-3 -3 -4 -3 -4 -3 -1 0 -0 1 1 2 2 5 13 7 4 5 7 7 8 10 17 18 19 23 23 20 20 20 19 18 17 16 15 15 14 13 13 12 11 10 9
-6 -6 -5 -6 -4 -3 -2 -1 -0 0 -1 -1 -0 1 9 2 2 2 3 4 6 7 9 14 15 15 15 16 17 16 15 13 13 12 12 12 11 11 10 9 8 8 8
-6 -7 -7 -6 -6 -5 -4 -3 -2 -2 -2 -2 -1 -1 -1 -1 -0 0 1 2 4 4 6 7 9 9 11 12 14 14 11 10 10 11 10 9 9 8 8 7 7 6 6
-10 -8 -7 -7 -7 -6 -6 -4 -3 -3 -3 -3 -2 -2 -2 -2 -2 -1 -0 1 2 2 3 4 5 6 7 8 9 10 10 10 10 10 10 8 8 8 7 6 6 5 5
-13 -12 -11 -9 -9 -8 -7 -7 -5 -4 -3 -3 -3 -2 -2 -1 -2 -2 -1 -0 -1 -1 -1 -0 1 2 3 5 6 8 10 9 8 9 8 8 6 6 5 5 5 5 5
-15 -15 -16 -13 -11 -9 -8 -8 -8 -7 -6 -5 -4 -4 -3 -3 -3 -2 -2 -2 -2 -1 -1 -1 -0 1 4 4 4 6 7 9 6 7 7 6 4 4 4 3 3 3 4
Lifted_Index
16 16 16 17 17 17 16 16 16 16 16 16 15 14 14 13 13 13 14 14 14 14 14 14 14 15 15 16 15 15 16 16 16 16 16 16 16 16 17 18 19 20 20
17 17 17 17 17 17 17 17 17 17 17 17 16 16 15 14 14 13 13 13 13 13 13 14 14 14 14 15 15 15 15 15 16 16 16 16 16 16 16 17 18 19 20
16 16 16 16 17 17 17 18 18 18 17 17 17 17 17 16 16 15 13 12 12 12 12 12 12 13 13 13 14 14 14 14 15 16 16 16 16 16 16 16 17 18 19
16 16 16 16 16 16 17 17 17 18 17 17 17 17 17 18 17 17 16 14 13 12 11 11 11 11 12 13 13 13 13 13 14 15 16 16 16 15 15 15 16 16 17
15 15 15 16 16 16 16 16 16 17 17 17 17 17 17 17 18 18 17 17 16 14 13 12 11 11 12 13 13 14 14 13 13 13 14 15 15 15 15 15 15 15 15
14 14 15 15 15 15 15 15 16 16 16 16 16 16 17 17 17 17 17 17 17 17 16 14 13 12 12 13 13 14 15 14 13 12 12 13 14 15 15 14 14 14 14
13 13 13 14 14 14 15 15 15 15 16 16 16 16 16 16 16 16 16 17 17 17 17 17 16 15 14 13 13 14 14 15 15 14 13 13 14 15 15 15 14 14 14
11 11 12 13 13 14 14 14 15 15 15 15 16 16 16 16 16 16 16 16 17 17 17 17 17 17 16 15 14 13 13 14 15 16 15 15 16 17 16 15 15 15 15
10 10 11 12 13 13 13 14 14 15 15 15 15 15 16 16 16 16 16 16 16 17 17 17 18 18 17 17 16 14 12 12 13 15 16 16 17 18 17 17 16 15 15
10 11 11 12 13 13 14 15 15 16 16 16 15 15 16 16 16 15 15 16 16 16 16 17 17 17 17 17 17 16 14 12 13 14 15 16 17 17 18 18 17 16 15
11 12 12 13 14 15 15 16 17 18 18 18 17 17 17 17 17 17 16 16 16 16 16 16 16 16 16 16 16 16 15 14 13 14 15 15 16 16 17 18 18 17 16
12 12 13 14 15 16 17 18 19 20 20 20 20 20 20 21 21 20 20 19 18 17 16 16 15 15 15 15 15 16 16 15 14 15 15 15 15 16 17 18 18 18 18
12 12 13 14 16 17 18 19 20 21 21 21 21 21 22 23 24 23 23 22 20 18 17 16 15 14 14 14 14 14 15 15 15 14 15 15 16 17 18 18 18 19 19
11 12 13 15 17 19 20 21 21 21 22 22 22 22 23 24 24 24 23 22 21 19 18 16 16 15 15 14 14 13 13 14 14 14 15 16 17 18 18 18 18 18 18
11 12 14 16 18 20 21 21 21 22 22 23 23 23 23 23 23 23 22 22 21 19 18 17 16 16 15 15 14 13 13 13 13 13 14 16 17 18 18 19 19 18 17
11 13 15 18 20 21 21 21 21 21 21 22 22 22 22 22 22 21 21 21 20 19 18 17 17 16 16 15 14 13 13 12 12 13 14 15 16 17 18 19 20 19 18
12 13 16 18 20 21 21 20 19 19 19 19 20 20 20 20 20 20 20 20 19 19 18 17 16 16 15 14 14 13 13 12 12 12 13 14 15 16 17 18 19 19 19
12 14 16 18 20 21 21 20 19 18 17 17 17 18 18 18 18 18 18 18 18 18 17 16 15 14 14 13 13 13 13 13 13 13 13 13 14 15 16 17 18 19 19
13 14 16 18 19 21 21 20 19 18 17 17 17 17 16 16 16 15 16 16 16 16 16 15 13 12 12 11 11 12 12 12 13 13 12 13 13 14 15 17 18 19 20
12 13 15 17 18 19 20 19 19 18 17 17 17 16 16 15 14 13 14 14 13 13 13 12 11 11 10 10 10 10 11 11 12 12 12 12 13 14 15 16 18 19 20
12 13 15 16 17 18 19 19 18 18 17 17 16 16 16 15 13 12 12 12 11 11 10 10 10 9 9 9 9 9 10 11 12 12 12 13 13 15 16 17 18 19 20
13 13 14 15 16 17 18 18 18 18 17 17 16 16 15 14 13 12 11 11 10 9 9 9 9 9 9 9 9 9 10 10 11 12 13 13 14 16 16 17 18 19 19
14 14 14 15 16 17 17 17 17 17 17 16 16 15 15 14 13 12 12 11 10 10 9 9 9 9 9 9 9 10 10 11 12 13 14 14 16 16 17 18 18 19 19
14 14 14 15 15 16 16 17 17 17 17 16 16 16 15 15 14 14 13 13 12 11 11 11 10 10 10 10 11 11 12 13 14 14 15 16 16 17 17 18 18 18 19
15 15 15 15 15 16 16 16 16 16 16 16 16 16 16 16 15 15 15 15 14 13 13 12 12 12 12 12 12 13 13 14 15 16 16 17 17 17 17 18 18 18 18
15 15 15 15 16 16 16 16 16 16 16 16 16 16 17 16 16 16 16 16 15 15 14 14 13 13 13 13 14 14 15 15 16 16 17 17 17 17 17 18 18 18 18